Starlink 3677

operational
NORAD ID: 51970 Int'l Des: 2022-025 Owner: SPXS Country: US Constellation: starlink
LEOCIRCULARSTARLINK_TYPE

关于 Starlink 3677

正在加载描述...

实时位置

正在加载3D地球...

即将过境

高度历史

Altitude vs Time

uPlot chart will show altitude changes over time

两行轨道根数

1 51970U 22025Q 26034.66196045 .00000582 00000-0 57935-4 0 9993
2 51970 53.0563 183.6600 0001421 89.0884 271.0268 15.06398828215795
Epoch: Feb 3, 2026 • Age: 13 hours

当前状态

高度 551.7 km
速度 7.59 km/s
星下点 47.99°N, 93.87°E
发射日期 Mar 9, 2022
运行时间 3.9 years
类型 internet

技术详情

分类 Payload
质量 297.00 kg
干质量 275.00 kg
总质量 297.00 kg
长度 0.20 m
直径 2.80 m
跨度 9.00 m
形状 Box + pan
制造商 SPXS
平台类型 Starlink
阶段状态 In Orbit
所有者/国家 SPXS/US

大型星座

Loading constellations...